Wind_Speed
17 17 10 4 6 7 9 10 9 8 4 2 2 2 3 4 5 5 6 6 7 9 10 9 8 12 14 16 14 11 12 10 12
19 15 8 5 6 8 11 12 12 11 9 6 4 3 3 3 3 5 7 8 8 8 10 12 15 13 2 9 14 15 13 12 12
18 18 9 8 8 10 13 14 12 11 11 9 8 6 5 5 6 6 6 8 8 9 10 11 14 13 12 9 16 12 18 17 15
17 18 14 11 11 12 14 15 14 12 11 10 10 8 6 6 7 8 7 9 10 10 11 12 13 14 12 9 6 18 17 19 20
16 16 16 15 14 14 15 17 17 14 13 13 9 8 9 9 10 12 11 11 13 12 12 13 13 13 16 12 9 11 18 20 22
18 16 15 15 17 18 18 18 19 18 15 14 12 11 11 12 12 14 15 15 15 16 16 15 15 15 16 18 17 17 16 21 18
21 19 16 15 16 18 20 21 21 20 18 16 15 15 16 17 18 17 16 18 18 19 19 19 20 18 16 17 18 18 21 20 16
24 23 20 18 17 18 20 21 22 21 20 19 18 19 21 21 21 20 19 18 20 21 22 21 21 22 23 23 20 20 20 20 19
23 24 23 22 21 21 21 22 23 24 24 23 23 23 24 23 23 22 20 20 21 21 22 23 25 25 24 26 27 23 22 20 20
23 24 24 24 23 23 23 24 25 26 26 25 26 27 27 26 25 23 23 23 23 23 24 25 26 26 27 28 28 29 26 25 20
24 25 26 26 25 25 25 27 27 28 28 29 30 31 30 28 27 27 26 26 26 27 28 29 30 32 34 33 31 31 31 29 28
28 28 28 28 28 28 28 28 29 30 29 30 33 34 31 31 31 30 30 29 30 31 32 33 35 37 39 40 39 37 35 34 33
32 31 31 31 30 30 30 30 30 31 32 35 36 34 32 32 33 33 34 33 34 35 36 38 40 41 43 45 44 44 42 42 39
36 34 34 33 32 31 32 32 31 32 35 37 36 34 34 34 35 36 36 37 38 39 40 41 44 46 48 49 49 49 50 48 47
39 38 36 36 34 33 33 33 34 35 34 35 36 35 34 36 37 38 40 41 42 43 46 47 49 49 50 51 53 55 54 54 52
41 40 39 38 36 34 34 35 35 34 33 34 36 36 36 38 40 42 43 45 46 48 51 54 55 56 56 55 56 59 61 60 60
43 41 40 39 38 35 35 35 36 35 34 35 36 36 38 40 42 45 46 48 50 53 56 57 59 60 62 65 67 72 74 74 73
43 41 41 41 39 36 35 35 36 36 36 36 37 37 39 40 41 45 48 50 53 56 59 63 65 67 70 73 78 81 86 90 87
42 41 42 42 39 37 37 36 36 38 38 37 38 41 42 44 44 44 49 52 56 60 64 67 71 77 81 84 90 90 81 70 66
41 43 44 43 39 38 38 37 38 38 38 39 41 43 45 48 50 51 51 55 60 63 67 70 77 82 89 92 78 69 69 69 71
Wind_Direction
352 346 338 353 359 1 350 349 348 351 1 2 357 2 1 350 356 352 353 352 353 344 333 313 281 263 265 266 263 266 268 275 256
350 349 332 335 334 339 340 336 333 331 326 324 339 338 326 324 341 348 339 345 359 359 356 346 333 336 2 321 278 269 271 271 266
351 347 324 309 316 321 328 333 334 336 336 329 333 330 317 330 352 353 353 351 355 4 359 352 357 12 356 6 5 312 276 271 271
351 344 329 298 305 311 318 325 329 333 330 325 325 318 316 309 318 333 335 335 339 346 352 358 359 4 3 331 314 326 333 276 270
343 344 330 310 297 302 308 314 319 320 322 318 302 308 313 310 308 305 307 312 314 322 331 336 337 346 345 352 342 305 308 315 268
338 337 333 316 302 298 299 302 307 308 311 319 315 296 298 300 306 303 298 292 296 302 305 314 320 330 332 329 335 342 333 339 272
328 329 326 320 310 302 298 299 300 301 302 303 307 307 301 297 300 301 293 293 289 289 295 297 303 301 311 317 316 321 329 337 327
323 322 321 318 312 302 299 297 298 300 294 294 296 300 301 298 294 295 293 290 292 292 288 286 296 298 299 307 310 309 315 325 332
320 321 317 313 314 308 301 298 297 299 296 293 293 298 301 297 293 292 288 288 289 288 290 289 283 288 291 294 301 301 302 305 309
319 319 314 310 307 309 302 298 296 297 294 290 290 295 298 294 291 289 288 287 288 290 288 287 286 286 289 292 292 292 290 291 289
317 318 314 307 305 304 303 298 296 295 293 290 292 295 296 292 289 286 285 284 287 288 288 286 284 286 289 289 289 285 283 280 283
307 313 315 307 302 300 300 298 296 294 290 290 292 293 292 290 288 287 287 286 286 286 287 287 289 290 291 290 288 286 281 278 272
298 305 310 309 302 297 297 296 295 293 290 291 292 291 289 288 287 286 285 286 286 286 287 288 289 290 290 288 287 284 281 278 274
291 299 305 308 302 295 295 295 295 292 291 291 290 290 288 287 287 285 284 285 285 285 288 290 291 289 287 285 282 280 279 277 271
286 293 300 303 300 293 293 294 294 294 295 293 291 289 287 287 286 287 287 288 289 292 294 294 292 289 284 280 277 277 276 273 268
282 288 294 298 297 291 291 293 295 294 295 293 292 290 290 290 290 291 290 291 292 293 295 295 293 290 285 280 279 277 273 269 266
279 284 290 295 294 289 289 292 293 295 294 292 289 290 293 292 293 292 292 292 293 295 294 292 289 287 284 282 279 279 277 273 268
277 282 288 293 291 287 287 289 291 295 295 292 291 290 290 290 287 289 290 292 295 296 295 292 290 290 288 285 285 284 281 279 273
275 280 287 290 286 284 285 288 291 295 295 294 293 295 296 293 289 288 290 294 298 297 295 296 298 297 294 294 291 288 279 271 261
274 280 284 286 283 281 284 287 292 296 295 296 299 298 297 296 294 292 291 297 299 297 298 300 301 298 297 298 293 285 278 271 264
Height
5912 5911 5909 5909 5909 5908 5907 5906 5905 5904 5903 5902 5900 5899 5898 5897 5897 5896 5895 5894 5893 5893 5892 5891 5889 5889 5889 5888 5889 5889 5889 5890 5891
5910 5909 5908 5908 5908 5907 5906 5905 5904 5903 5902 5900 5899 5898 5897 5896 5895 5895 5893 5893 5892 5891 5891 5888 5887 5887 5887 5886 5886 5887 5887 5887 5888
5909 5907 5907 5907 5906 5905 5904 5903 5902 5901 5900 5899 5898 5897 5896 5895 5894 5894 5893 5892 5891 5890 5889 5888 5887 5886 5885 5884 5885 5885 5885 5886 5886
5908 5906 5904 5904 5904 5903 5902 5901 5901 5899 5898 5898 5897 5896 5895 5894 5893 5893 5892 5891 5890 5889 5889 5888 5887 5886 5885 5883 5883 5883 5882 5882 5883
5907 5905 5902 5902 5901 5901 5900 5899 5898 5898 5896 5896 5895 5894 5893 5893 5892 5891 5890 5889 5888 5888 5887 5886 5886 5885 5883 5883 5882 5881 5881 5879 5879
5904 5902 5900 5899 5898 5898 5898 5897 5896 5895 5893 5893 5892 5891 5891 5890 5889 5888 5887 5886 5885 5884 5884 5884 5883 5883 5882 5881 5880 5879 5877 5876 5874
5900 5899 5898 5896 5895 5894 5894 5893 5892 5891 5890 5889 5888 5887 5887 5886 5885 5884 5883 5882 5881 5881 5880 5879 5879 5879 5879 5878 5877 5876 5875 5873 5871
5897 5895 5893 5892 5891 5890 5889 5888 5887 5886 5885 5885 5884 5883 5882 5881 5880 5879 5878 5877 5876 5876 5876 5875 5875 5874 5874 5874 5874 5873 5872 5871 5870
5892 5891 5889 5887 5886 5884 5883 5882 5881 5880 5879 5879 5878 5877 5876 5875 5874 5873 5873 5872 5871 5870 5870 5869 5869 5869 5869 5870 5870 5870 5869 5869 5868
5888 5886 5884 5882 5881 5879 5878 5877 5875 5874 5873 5873 5872 5871 5870 5869 5868 5867 5866 5866 5865 5865 5864 5863 5863 5863 5863 5864 5865 5865 5865 5864 5864
5883 5881 5879 5877 5875 5874 5872 5870 5869 5868 5867 5866 5865 5864 5862 5862 5860 5860 5859 5859 5858 5858 5857 5856 5855 5855 5856 5857 5858 5859 5859 5860 5860
5877 5875 5873 5871 5869 5867 5866 5864 5862 5861 5860 5859 5858 5856 5855 5853 5852 5851 5851 5850 5850 5850 5849 5849 5848 5847 5847 5847 5850 5851 5853 5853 5854
5871 5869 5867 5865 5863 5861 5859 5857 5855 5854 5852 5851 5850 5848 5847 5846 5844 5843 5842 5841 5841 5840 5840 5840 5840 5839 5838 5837 5839 5840 5843 5845 5846
5864 5862 5860 5858 5856 5854 5852 5850 5848 5846 5844 5842 5840 5839 5838 5837 5836 5835 5834 5832 5831 5831 5830 5830 5829 5829 5829 5827 5827 5828 5829 5834 5835
5856 5854 5852 5850 5848 5846 5844 5842 5840 5838 5836 5833 5831 5830 5829 5828 5826 5824 5823 5821 5819 5818 5817 5816 5816 5816 5815 5814 5814 5814 5815 5818 5823
5847 5845 5844 5842 5839 5838 5836 5834 5832 5830 5827 5825 5822 5821 5819 5818 5815 5813 5811 5809 5807 5806 5805 5802 5800 5799 5799 5799 5798 5799 5799 5802 5806
5837 5836 5834 5833 5831 5829 5827 5825 5822 5820 5819 5816 5814 5812 5810 5807 5804 5801 5799 5796 5795 5793 5791 5790 5787 5786 5783 5781 5781 5778 5778 5779 5784
5827 5827 5825 5823 5822 5820 5818 5815 5813 5811 5809 5806 5804 5803 5801 5799 5796 5791 5788 5786 5783 5779 5774 5770 5767 5764 5762 5760 5758 5753 5748 5746 5749
5817 5817 5815 5814 5812 5811 5809 5806 5804 5801 5798 5795 5794 5791 5788 5786 5786 5783 5777 5773 5768 5764 5756 5750 5743 5736 5731 5727 5724 5719 5714 5712 5715
5807 5806 5805 5803 5802 5800 5799 5797 5794 5791 5787 5784 5782 5779 5775 5771 5769 5767 5764 5759 5752 5746 5737 5728 5720 5710 5702 5697 5690 5685 5682 5683 5683